EHI
0 0 0 0 0 0 0 0 0 0 0 0 0 0 0 0 0 0 0 0 0 0 0 0 0 1 1 1 0 1 2 3 3 3 3 3 3 4 5 6 6 6 6 6
0 0 0 0 0 0 0 0 0 0 0 0 0 0 0 0 0 0 0 0 0 0 1 1 0 0 0 0 0 0 2 3 3 3 3 3 3 3 4 4 5 6 6 5
0 0 0 0 0 0 0 0 0 0 0 0 0 0 0 0 0 0 0 0 0 0 1 2 1 0 0 0 0 0 1 2 2 2 2 3 3 3 3 3 4 5 5 4
0 0 0 0 0 0 0 0 0 0 0 0 0 0 0 0 0 0 0 0 0 0 1 2 2 1 0 0 0 0 1 1 1 0 1 2 2 1 1 3 3 3 3 3
0 0 0 0 0 0 0 0 0 0 0 0 0 0 0 0 0 0 0 0 0 0 0 1 2 2 1 0 0 0 0 0 0 0 0 1 1 0 1 2 3 1 1 2
0 0 0 0 0 0 0 0 0 0 0 0 0 0 0 0 0 0 0 0 0 0 0 0 1 1 1 0 0 0 0 0 0 0 0 0 0 0 1 2 2 1 1 2
0 0 0 0 0 0 0 0 0 0 0 0 0 0 0 0 0 0 0 0 0 0 0 0 0 0 0 0 0 0 0 0 0 0 0 0 0 0 0 1 1 0 0 1
0 0 0 0 0 0 0 0 0 0 0 0 0 0 0 0 0 0 0 0 0 0 0 0 0 0 0 0 0 0 0 0 0 0 0 0 0 0 0 0 0 0 0 0
0 0 0 0 0 0 0 0 0 0 0 0 0 0 0 0 0 0 0 0 0 0 0 0 0 0 0 0 0 0 0 0 0 0 0 0 0 0 0 0 0 0 0 0
0 0 0 0 0 0 0 0 0 0 0 0 0 0 0 0 0 0 0 0 0 0 0 0 0 0 0 0 0 0 0 0 0 0 0 0 0 0 0 0 0 0 0 0
0 0 0 0 0 0 0 0 0 0 0 0 0 0 0 0 0 0 0 0 0 0 0 0 0 0 0 0 0 0 0 0 0 0 0 0 0 0 0 0 0 0 0 0
0 0 0 0 0 0 0 0 0 0 0 0 0 0 0 0 0 0 0 0 0 0 0 0 0 0 0 0 0 0 0 0 0 0 0 0 0 0 0 0 0 0 0 0
0 0 0 0 0 0 0 0 0 0 0 0 0 0 0 0 0 0 0 0 0 0 0 0 0 0 0 0 0 0 0 0 0 0 0 0 0 0 0 0 0 0 0 0
0 0 0 0 0 0 0 0 0 0 0 0 0 0 0 0 0 0 0 0 0 0 0 0 0 0 0 0 0 0 0 0 0 0 0 0 0 0 0 0 0 0 0 0
0 0 0 0 0 0 0 0 0 0 0 0 0 0 0 0 0 0 0 0 0 0 0 0 0 0 0 0 0 0 0 0 0 0 0 0 0 0 0 0 0 0 0 0
0 0 0 0 0 0 0 0 0 0 0 0 0 0 0 0 0 0 0 0 0 0 0 0 0 0 0 0 0 0 0 0 0 0 0 0 0 0 0 0 0 0 0 0
0 0 0 0 0 0 0 0 0 0 0 0 0 0 0 0 0 0 0 0 0 0 0 0 0 0 0 0 0 0 0 0 0 0 0 0 0 0 0 0 0 0 0 0
0 0 0 0 0 0 0 0 0 0 0 0 0 0 0 0 0 0 0 0 0 0 0 0 0 0 0 0 0 0 0 0 0 0 0 0 0 0 0 0 0 0 0 0
0 0 0 0 0 0 0 0 0 0 0 0 0 0 0 0 0 0 0 0 0 0 0 0 0 0 0 0 0 0 0 0 0 0 0 0 0 0 0 0 0 0 0 0
0 0 0 0 0 0 0 0 0 0 0 0 0 0 0 0 0 0 0 0 0 0 0 0 0 0 0 0 0 0 0 0 0 0 0 0 0 0 0 0 0 0 0 0
0 0 0 0 0 0 0 0 0 0 0 0 0 0 0 0 0 0 0 0 0 0 0 0 0 0 0 0 0 0 0 0 0 0 0 0 0 0 0 0 0 0 0 0
0 0 0 0 0 0 0 0 0 0 0 0 0 0 0 0 0 0 0 0 0 0 0 0 0 0 0 0 0 0 0 0 0 0 0 0 0 0 0 0 0 0 0 0
0 0 0 0 0 0 0 0 0 0 0 0 0 0 0 0 0 0 0 0 0 0 0 0 0 0 0 0 0 0 0 0 0 0 0 0 0 0 0 0 0 0 0 0
0 0 0 0 0 0 0 0 0 0 0 0 0 0 0 0 0 0 0 0 0 0 0 0 0 0 0 0 0 0 0 0 0 0 0 0 0 0 0 0 0 0 0 0
0 0 0 0 0 0 0 0 0 0 0 0 0 0 0 0 0 0 0 0 0 0 0 0 0 0 0 0 0 0 0 0 0 0 0 0 0 0 0 0 0 0 0 0
0 0 0 0 0 0 0 0 0 0 0 0 0 0 0 0 0 0 0 0 0 0 0 0 0 0 0 0 0 0 0 0 0 0 0 0 0 0 0 0 0 0 0 0
Wind_Speed
2 0 2 4 5 6 6 8 9 8 3 4 6 5 4 3 3 3 2 2 2 2 2 1 1 2 3 3 3 3 3 2 2 2 2 2 2 3 2 3 5 5 4 4
1 3 4 4 5 7 8 9 8 6 4 4 5 7 5 4 3 3 2 2 3 2 1 1 1 0 2 3 3 3 3 3 2 2 2 2 2 2 3 2 4 5 5 5
2 3 3 4 5 6 7 6 6 6 7 5 4 6 6 4 3 2 3 2 2 2 2 1 1 1 1 2 3 3 3 3 2 2 2 2 2 2 2 3 3 4 5 5
3 3 4 4 5 5 7 5 7 8 5 4 3 4 5 3 3 3 3 2 2 2 2 1 1 1 0 1 2 2 2 1 2 2 3 4 3 3 3 3 3 4 5 5
3 4 4 5 6 6 6 7 8 8 6 5 5 4 4 3 3 2 2 2 2 1 1 1 1 1 1 1 1 2 2 1 1 2 3 3 3 2 3 4 5 4 4 5
3 3 3 5 6 5 6 6 7 6 3 5 6 5 4 3 4 3 2 2 2 2 1 0 1 1 2 1 1 1 2 1 1 1 2 2 3 3 4 4 5 4 3 4
3 1 3 4 5 3 4 2 1 2 3 4 3 3 4 2 0 1 1 1 1 1 1 0 1 1 1 1 1 1 2 1 1 1 1 1 2 3 4 4 4 4 4 4
4 3 3 4 3 3 3 2 1 2 3 3 2 4 2 1 3 4 2 1 2 1 1 1 1 1 1 1 1 1 1 1 1 1 1 1 1 2 2 3 3 4 3 4
4 4 3 4 4 3 3 3 3 3 4 3 3 2 1 5 5 5 4 4 3 2 2 2 2 1 2 1 1 1 1 1 1 2 1 2 1 1 1 2 2 2 2 3
4 5 4 3 3 3 3 3 2 1 2 3 4 3 1 4 6 5 5 4 4 4 2 2 2 1 1 1 1 1 1 2 2 1 1 1 1 1 1 2 2 2 2 3
4 4 4 2 1 3 3 3 3 3 2 2 3 1 3 4 4 5 6 6 5 5 3 2 2 2 1 1 2 1 2 2 2 2 2 1 1 1 1 2 2 2 2 3
3 3 4 3 1 1 1 1 2 1 3 3 3 2 4 7 6 6 7 7 7 6 4 3 2 2 2 2 2 1 2 2 1 1 2 1 1 1 2 2 2 2 2 2
2 2 3 2 1 2 2 2 2 3 3 3 3 3 4 7 7 8 8 8 7 6 5 5 4 3 2 2 2 1 1 1 1 1 1 1 1 1 1 2 2 2 2 2
3 1 2 4 4 4 5 5 3 1 2 4 4 5 6 8 8 8 7 7 7 6 5 5 5 4 4 2 2 1 1 1 1 1 1 1 1 0 0 1 1 2 2 2
2 2 4 6 7 6 6 5 4 3 4 4 5 5 5 6 6 6 6 7 7 7 7 7 6 5 5 4 3 2 1 1 1 1 1 0 1 1 0 1 1 1 1 1
2 3 3 6 6 5 6 5 4 4 4 5 6 6 5 6 5 6 6 6 7 7 8 8 7 6 6 5 5 4 2 1 1 1 0 1 1 1 1 1 1 1 1 1
2 2 3 4 3 5 5 4 4 3 3 3 5 6 6 7 7 6 5 6 6 7 7 7 7 7 6 6 5 4 3 2 1 1 1 1 1 1 1 1 1 1 1 1
2 2 3 4 3 4 4 1 2 4 4 3 3 5 5 6 7 4 4 5 6 7 7 6 6 7 6 5 5 4 4 2 1 1 1 1 1 1 1 1 1 1 1 1
3 2 3 2 4 6 1 1 0 2 3 2 4 5 6 6 6 3 5 6 6 6 6 6 5 6 6 5 5 5 4 2 2 1 1 1 1 0 0 1 1 1 1 1
2 2 2 3 3 5 2 1 1 1 3 3 3 4 5 6 4 4 7 8 8 7 6 6 6 5 5 6 5 4 4 3 2 2 2 1 1 0 0 0 0 1 1 1
2 3 4 4 4 5 2 1 1 1 5 3 2 2 3 3 4 6 8 7 7 7 7 6 6 5 5 6 5 4 4 3 3 3 2 2 1 1 0 0 0 1 0 1
4 3 4 3 4 6 1 2 2 4 2 2 2 2 3 5 6 6 7 8 7 7 7 6 6 6 5 5 4 4 4 4 3 2 2 2 1 1 1 1 0 1 1 1
4 4 3 5 6 2 3 3 2 1 2 2 2 3 4 5 6 6 7 7 7 7 7 6 5 6 5 5 4 4 5 4 3 2 2 2 1 1 1 1 1 1 1 1
2 1 3 5 5 3 3 2 1 1 2 3 3 3 4 5 6 7 6 6 6 6 6 6 5 5 5 5 5 5 5 4 3 2 2 1 1 1 1 1 1 1 1 1
2 3 3 6 5 4 3 3 3 3 3 3 3 3 4 4 6 6 6 6 6 6 6 5 5 5 6 5 5 5 4 4 3 2 2 2 1 1 1 2 1 1 0 1
3 5 5 6 4 3 4 3 2 2 3 3 3 4 4 4 5 5 5 5 5 5 5 5 5 5 5 5 5 5 4 3 2 2 2 1 1 1 1 1 2 4 3 3
Wind_Direction
176 221 255 247 246 268 268 260 266 267 247 243 239 245 252 255 260 263 268 276 280 254 240 238 241 179 165 165 173 169 162 156 137 142 148 152 161 149 144 147 146 147 145 145
254 259 275 281 280 279 274 268 270 284 285 256 243 253 256 236 248 268 280 281 284 291 285 239 241 178 174 168 172 167 163 163 156 163 170 163 163 164 148 148 152 149 149 151
277 316 306 283 280 281 270 261 276 288 294 254 246 258 247 235 229 269 291 293 299 302 282 262 243 254 162 161 172 179 178 172 163 154 149 135 126 144 149 158 166 162 155 153
287 310 312 296 291 289 272 283 285 281 277 258 226 261 240 222 239 261 278 298 303 305 314 342 357 338 4 165 164 168 176 160 149 145 157 161 163 172 175 163 159 165 159 156
311 327 310 291 285 283 286 295 274 268 257 267 249 245 256 203 248 283 314 326 335 346 339 337 336 339 12 45 123 157 162 147 141 155 168 161 163 163 161 154 153 164 161 158
300 334 330 309 308 294 302 294 270 247 230 246 237 224 265 225 231 263 323 349 346 339 333 8 12 19 37 54 70 120 146 138 137 152 152 152 154 158 157 156 160 167 163 158
314 344 349 346 324 323 338 339 327 265 218 238 210 214 242 242 229 222 228 294 328 327 312 52 45 32 38 57 69 80 134 135 134 144 141 149 161 178 174 166 168 166 166 160
323 319 0 358 341 313 291 273 231 243 252 280 219 222 231 64 40 25 38 63 20 0 1 46 75 56 58 66 74 85 126 120 134 156 156 155 165 189 185 170 165 165 168 164
325 304 338 339 334 338 308 280 272 277 281 267 242 230 235 20 23 17 20 26 16 9 32 37 41 56 54 57 57 99 152 140 146 171 160 148 151 178 174 151 139 150 149 157
309 293 303 324 344 345 323 315 317 274 267 259 251 231 306 351 355 0 7 9 7 1 20 33 25 30 44 58 74 84 88 124 142 138 131 146 156 169 161 145 140 144 156 159
308 293 305 338 353 332 355 354 320 276 266 261 260 267 12 7 11 5 360 5 3 355 359 14 12 13 34 74 82 73 83 80 85 83 69 74 119 150 146 142 145 149 166 163
320 302 285 270 185 53 66 8 340 295 287 270 268 272 14 19 20 15 4 2 3 1 2 359 355 4 37 60 67 67 73 78 85 93 98 87 58 112 157 155 162 158 165 173
322 320 308 307 333 350 334 314 303 291 290 278 271 267 2 11 11 8 4 359 358 358 1 359 356 1 26 41 43 48 69 72 87 81 88 98 97 109 160 159 166 170 171 180
336 274 226 247 285 300 297 303 302 285 261 281 261 281 324 354 355 354 355 353 353 356 359 360 0 2 8 17 25 25 39 64 66 72 72 67 69 87 189 159 164 175 174 181
351 267 263 271 279 280 276 294 295 251 251 254 279 288 307 334 334 340 349 351 355 356 358 1 359 356 359 358 358 6 15 38 42 50 72 22 16 36 68 151 159 165 169 196
336 279 285 276 257 267 279 288 280 268 267 268 288 289 314 332 340 347 350 348 350 348 348 350 351 353 351 347 345 347 349 6 32 47 24 35 52 55 62 96 137 147 141 142
283 295 291 274 290 297 273 252 237 253 254 246 265 279 326 337 334 334 338 342 343 338 336 339 340 338 338 337 334 334 332 347 20 26 19 23 44 42 39 32 72 98 110 97
238 278 265 284 318 262 234 128 182 232 258 267 285 309 326 319 314 322 345 343 336 333 333 336 334 331 331 331 330 334 332 328 353 13 15 34 42 40 36 38 53 75 106 122
207 225 267 274 277 270 221 81 90 232 279 297 288 307 325 328 323 320 360 352 335 328 329 327 326 324 327 331 332 337 336 337 344 337 348 12 42 38 67 67 52 36 102 118
209 200 238 257 264 260 266 340 343 107 269 325 333 316 325 341 331 306 343 341 336 336 336 334 332 333 337 335 336 339 334 344 352 348 343 345 355 350 351 65 45 29 79 127
214 222 225 243 251 261 287 317 70 158 265 328 330 308 315 303 272 298 322 327 330 331 332 336 336 335 334 334 339 338 341 343 339 347 353 357 3 350 1 61 74 109 109 116
197 210 210 214 232 250 35 104 177 233 310 325 327 316 305 300 305 316 323 325 329 332 334 335 334 330 333 338 342 339 333 331 341 355 2 358 359 349 352 81 91 132 146 136
198 205 212 210 223 226 174 194 227 289 310 315 320 318 312 310 312 317 320 323 325 327 328 330 329 326 332 336 340 332 326 334 340 354 356 3 3 12 15 92 141 138 150 157
212 211 246 268 261 255 233 228 273 301 289 302 310 313 313 306 309 315 318 321 323 325 326 328 331 330 330 334 339 332 329 332 337 351 352 356 17 18 23 21 27 136 158 168
214 179 244 260 277 304 265 244 258 273 285 301 308 304 300 302 305 308 312 315 318 321 325 327 329 326 325 331 331 330 330 337 341 348 349 351 6 29 41 30 17 13 43 209
186 187 203 236 243 238 274 275 269 266 275 279 291 302 301 293 296 304 305 307 311 315 320 322 322 321 321 327 330 331 333 339 339 342 341 340 346 17 45 52 28 24 21 25